Location: Austin
(30.3000°N, 97.7500°W)
Time: 05:54:10
(UTC-05:00)

Cosmos 2285 Rocket - Pass Details

Date: 16 June 2025
Orbit: 969 x 999 km, 74.0° (Epoch: 07 July)

Event Time Altitude Azimuth Distance (km) Brightness Sun altitude
Exits shadow 04:32:57 34° 197° (SSW) 1,537 4.6 -20.9°
Maximum altitude 04:35:54 88° 285° (WNW) 977 3.9 -20.5°
Drops below altitude 10° 04:42:14 10° 15° (NNE) 2,729 7.2 -19.5°
Sets 04:44:47 0° 16° (NNE) 3,684 8.0 -19.1°
